Aérodrome :
LOGIN :

S'inscrire | Disclaimer

   EN    FR    IT 

 










Légende :    VFR   VFR Marginal   IFR   IFR Intensif   IFR Très Intensif
Visi : 
Plafond : 
>= 8 km
>= 3000ft
5 à 8 km
1000 à 3000 ft
1500m à 5 km
500 à 1000 ft
800 à 1500m
200 à 500 ft
< 800m
< 200 ft
Symboles :   Orages  Brouillard  Fortes neiges  Fortes précipitations  Vent > 20 kt
SIGMETs :   Divers  Orages  Givrage  Turbulence  Onde Orograph.  Cendres Volcan.







- Altitude de l'aérodrome : 36 ft
- Code IATA : LTQ
- Voir les cartes d'approche


LFAT - Le Touquet

DERNIER METAR :
  • 161500Z AUTO 20004KT 150V220 CAVOK 13/06 Q1024 NOSIG

METARs EXPIRÉS :
  • 161430Z AUTO 24005KT CAVOK 12/06 Q1024 NOSIG
  • 161400Z AUTO 23004KT 190V270 CAVOK 13/05 Q1025 NOSIG
  • 161330Z AUTO 22004KT 190V260 CAVOK 13/05 Q1025 NOSIG
  • 161300Z AUTO 22005KT 180V260 9999 FEW018 12/05 Q1025 NOSIG
  • 161230Z AUTO 23006KT 190V260 CAVOK 11/05 Q1026 NOSIG

TAF TAF LFAT
Valide du 16 à 15h jusqu'au 17 à 00h UTC


161400Z 1615/1624 22005KT CAVOK
ATIS : +33 3 21 06 62 84
Pas de NOTAMs connus pour ce terrain.



MET'MAP, la Météo Aéronautique d'un coup d'oeil ! - Copyright ORBIFLY Décembre 2007 - Disclaimer

ORBIFLY MET'MAP TEAM :

Programmation & Développement : Alexandra Zaïnal
Conception & Développement : Baudouin d'Aumeries
Co-Programmation & Développement : Marc-Olivier Méhu
Soutien technique & logistique : Manuel Goepfert

Contact : metmap@orbifly.com




SOURCES & CREDITS :

   NOAA